Погода Старое Баршино

Погода Старое Баршино : погода сейчас, прогноз погоды и архив. Всё, что Вы хотите узнать о погоде Старое Баршино!

Поиск расширенной информации на нашем сайте:

Другие новости

Новости СМИ2

Главная страница сайта

Новости сайта

03.07.2017

Напоминаем, что на нашем специализированном сайте Метеоцентр.Азия вы можете получить высокодетализированные автоматические прогнозы погоды по пунктам России, СНГ и мира в авиационном формате (включающие направление и скорость ветра, видимость, явления погоды, количество и форму облачности, нижнюю и верхнюю границу облачности).

Рекомендуем: ищете офис? Бизнес центр Капитал Тауэр в районе 1-я Тверская-Ямская улица с фотками и планировками

Погода Старое Баршино - сегодня

Время (UTC), дата Ветер
(°,м/с) 
Видим.   Явления Облачность Т
(°С)
Тd
(°С)
f(%) Тe
(°С)
Pmin
(гПа)
dP
(гПа)
Po
(мм)
O2
(г/м3)
Тmin Tmax R s Состояние
почвы
18 13.12.17 050 (СВ) н/о    ясно 
-27.6 -31.3 71 -28  1046.7  0.3  748  337    -21.8       
21 13.12.17 тихо ()   н/о    ясно 
-28.1 -31.8 71 -28  1046.7  748  338           
00 14.12.17 тихо ()   н/о    ясно 
-28.7 -32.5 70 -29  1047.4  0.5  748  339           
03 14.12.17 тихо ()   10 км    ясно 
-29.2 -32.9 70 -29  1038.2  0.8  749  340           
06 14.12.17 тихо ()   10 км    ясно 
-25.1 -29 70 -25  1047.9  0.5  749  334  -30.8         
09 14.12.17 тихо ()   10 км    ясно 
-21 -24.3 75 -21  1046.9  -0.2  749  329           
12 14.12.17 тихо ()   н/о    ясно 
-21.6 -24.8 75 -22  1047.7  0.5  749  330           
15 14.12.17 тихо ()   н/о    ясно 
-23.6 -26.8 75 -24  1048.5  0.4  750  332    -21       
18 14.12.17 тихо ()   н/о    ясно 
-26.9 -30.7 70 -27  1048.7  -0.4  749  337    -21       
21 14.12.17 тихо ()   н/о    ясно 
-27.8 -31.7 69 -28  1048.4  -0.4  749  338           
00 15.12.17 тихо ()   н/о    ясно 
-29.2 -32.9 70 -29  1048.6  749  340           
03 15.12.17 тихо ()   10 км    ясно 
-30.1 -33.9 69 -30  1048.8  749  341        18  равномерный
сухой снег
100% 
06 15.12.17 тихо ()   10 км    ясно 
-24.3 -28.2 70 -24  1048.2  0.5  749  333  -30.6         
09 15.12.17 тихо ()   10 км    ясно 
-21 -24.3 75 -21  1046.2  -1.3  749  328           
12 15.12.17 360 (С) н/о    ясно 
-23.9 -27.1 75 -24  1047.3  0.5  749  332           
15 15.12.17 360 (С) н/о    ясно 
-24.4 -28.3 70 -25  1047.4  0.1  749  333    -21       
18 15.12.17 тихо ()   н/о    ясно 
-27.3 -31.2 69 -27  1047  -1  748  337    -21       
21 15.12.17 тихо ()   н/о    ясно 
-28 -31.8 70 -28  1047  -0.2  748  338           
00 16.12.17 тихо ()   н/о    ясно 
-29.4 -33.1 70 -29  1046.8  -0.4  748  340           
03 16.12.17 360 (С) 10 км    ясно 
-32.2 -36.6 65 -36  1046.5  -0.8  747  343        18  равномерный
сухой снег
100% 
06 16.12.17 360 (С) 10 км    ясно 
-27.1 -30.9 70 -28  1045.6  0.1  747  336  -32.6         
09 16.12.17 290 (З) 10 км    ясно 
-21.3 -25.3 70 -22  1043.2  -1.2  746  328           
12 16.12.17 290 (З) н/о    ясно 
-23 -27 70 -26  1043.6  746  330           
15 16.12.17 тихо ()   н/о    ясно 
-26.7 -30.5 70 -27  1044.9  0.5  747  335    -21.3       
18 16.12.17 тихо ()   н/о    ясно 
-28 -31.8 70 -28  1044.9  -0.2  747  337    -21.3       
Время (UTC), дата Ветер
(°,м/с) 
Видим.   Явления Облачность Т
(°С)
Тd
(°С)
f(%) Тe
(°С)
Pmin
(гПа)
dP
(гПа)
Po
(мм)
O2
(г/м3)
Тmin Tmax R s Состояние
почвы

Для получения пояснительной информации подведите курсор к названию столбца.

ПОГОДА Старое Баршино - архив

Всё, что Вы хотите узнать о погоде Старое Баршино - удобно и подробно!

Выберите нужную дату (начиная с 1 января 2015* года) и нажмите кнопку "Найти".
Будут отображены архивные сводки погоды по пункту Старое Баршино, начиная с указанной даты.


Отображать данные в формате CSV (для использования в таблицах Excel)


Внимание! Наш архив погоды предназначен исключительно для личного некоммерческого использования в познавательных целях. Если Вам необходимы официальные справки о состоянии погоды (для производственных, юридических, коммерческих и т.п. целей), обращайтесь в органы Росгидромета.

*Примечание: данная дата относится к архиву по метеостанциям СССР (Россия, СНГ, Балтия).
Архив по метеостанциям Зарубежной Европы и Азии (кроме Китая) хранится 10 дней, по другим регионам земного шара (Китай, Африка, Америка, Австралия, Океания) - 1 день.

Старое Баршино - район местоположения метеостанции


Название, широта, долгота, высота метеостанции:
Старое Баршино 49.68°ш. 69.52°д. 357 м над ур. моря [Казахстан]

Дополнительная информация

В oтличие oт бoльшинства пoгoдных сайтoв мы публикуем пoдрoбную метеoинфoрмацию в детальнoм прoфессиoнальнoм фoрмате.

Характеристики температуры и влажнoсти вoздуха измеряются на высoте 2 м в тени вдали oт зданий и деревьев.
Скoрoсть ветра измеряется на высoте 10 м (на урoвне рoста челoвека скoрoсть ветра ниже в 1.5-2 раза). Если метеoстанция нахoдится в гoрoде или в лесу, тo скoрoсть ветра занижена на 2-4 м/с пo сравнению с oткрытым местoм. Скoрoсть ветра над акватoриями крупных рек и oзёр, а также на вершинах хoлмoв на 2-5 м/с выше, чем в oбычных услoвиях.
Атмoсфернoе давление в разных тoчках местнoсти мoжет значительнo oтличаться oт давления на метеoстанции, в зависимoсти oт услoвий рельефа (при пoдъёме на 10 м давление пoнижается примернo на 1 мм рт.ст.).